Prerov, Czech Republic

6:00 PM CEST on April 24, 2017 (GMT +0200)
Prerov

Weather History for LKPO - October, 2012

Change the Weather History Date:

Friday, October 19, 2012

  Actual Average Record
Temperature  
Mean Temperature 50 °F -  
Max Temperature 64 °F - - ()
Min Temperature 37 °F - - ()
Degree Days  
Heating Degree Days 14    
Moisture  
Dew Point 44 °F    
Average Humidity 91    
Maximum Humidity 100    
Minimum Humidity 56    
Precipitation  
Precipitation 0.00 in - - ()
Sea Level Pressure  
Sea Level Pressure 30.12 in    
Wind  
Wind Speed 1 mph ()    
Max Wind Speed 5 mph    
Max Gust Speed -    
Visibility 1.7 miles    
Events Fog    
T = Trace of Precipitation, MM = Missing Value Source: Averaged Metar Reports

Daily Weather History Graph

Daily Weather History Graph

Search for Another Location

Airport or City:

Trip Planner

Search our weather history database for the weather conditions in past years. The results will help you decide how hot, cold, wet, or windy it might be!

Date:

Astronomy

Oct. 19, 2012 Rise Set
Actual Time 7:18 AM CEST 5:51 PM CEST
Civil Twilight 6:45 AM CEST 6:24 PM CEST
Nautical Twilight 6:08 AM CEST 7:01 PM CEST
Astronomical Twilight 5:31 AM CEST 7:37 PM CEST
Moon 12:03 PM CEST (10/19) 8:50 PM CEST (10/19)
Length of Visible Light 11h 38m
Length of Day
10h 33m
Waxing Crescent, 21% of the Moon is Illuminated
Oct 19
Waxing Crescent
Oct 22
First Quarter
Oct 29
Full
Nov 7
Last Quarter
Nov 13
New

Hourly Weather History & Observations

Time (CEST) Temp. Windchill Dew Point Humidity Pressure Visibility Wind Dir Wind Speed Gust Speed Precip Events Conditions
12:00 AM 44.6 °F - 42.8 °F 93% 30.12 in 6.2 mi Calm Calm - N/A   Partly Cloudy
1:00 AM 42.8 °F - 41.0 °F 93% 30.12 in - Variable 2.3 mph - N/A   Clear
2:00 AM 41.0 °F - 41.0 °F 100% 30.12 in 5.6 mi Variable 1.2 mph - N/A   Unknown
2:21 AM 42.8 °F - 42.8 °F 100% 30.12 in 2.8 mi WNW 1.2 mph - N/A   Mist
2:32 AM 42.8 °F - 41.0 °F 93% 30.12 in 1.7 mi Calm Calm - N/A   Mist
2:40 AM 42.8 °F - 41.0 °F 93% 30.12 in 0.9 mi Calm Calm - N/A   Mist
2:45 AM 41.0 °F - 41.0 °F 100% 30.12 in 0.4 mi Variable 1.2 mph - N/A Fog Fog
3:00 AM 41.0 °F - 41.0 °F 100% 30.12 in 0.4 mi Calm Calm - N/A Fog Fog
4:00 AM 39.2 °F - 39.2 °F 100% 30.12 in 0.1 mi Calm Calm - N/A Fog Fog
5:00 AM 39.2 °F - 39.2 °F 100% 30.12 in 0.1 mi West 2.3 mph - N/A Fog Fog
6:00 AM 37.4 °F - 37.4 °F 100% 30.12 in 0.1 mi Calm Calm - N/A Fog Fog
7:00 AM 37.4 °F - 37.4 °F 100% 30.15 in 0.1 mi SSW 1.2 mph - N/A Fog Fog
8:00 AM 37.4 °F - 37.4 °F 100% 30.15 in 0.1 mi Calm Calm - N/A Fog Fog
9:00 AM 39.2 °F - 39.2 °F 100% 30.15 in 0.2 mi Calm Calm - N/A Fog Fog
10:00 AM 42.8 °F - 42.8 °F 100% 30.15 in 0.2 mi Calm Calm - N/A Fog Fog
10:45 AM 46.4 °F - 46.4 °F 100% 30.15 in - Variable 1.2 mph - N/A   Partly Cloudy
11:00 AM 46.4 °F - 46.4 °F 100% 30.15 in 6.2 mi Variable 1.2 mph - N/A   Partly Cloudy
12:00 PM 53.6 °F - 50.0 °F 88% 30.15 in - Variable 1.2 mph - N/A   Clear
1:00 PM 59.0 °F - 48.2 °F 67% 30.12 in - Variable 2.3 mph - N/A   Clear
2:00 PM 60.8 °F - 48.2 °F 63% 30.12 in - Variable 2.3 mph - N/A   Clear
3:00 PM 64.4 °F - 48.2 °F 56% 30.09 in - Variable 1.2 mph - N/A   Clear
4:00 PM 64.4 °F - 51.8 °F 64% 30.09 in - Calm Calm - N/A   Clear
5:00 PM 62.6 °F - 51.8 °F 68% 30.09 in - NW 1.2 mph - N/A   Clear
6:00 PM 57.2 °F - 51.8 °F 82% 30.09 in - WNW 1.2 mph - N/A   Clear
7:00 PM 51.8 °F - 50.0 °F 94% 30.09 in - Calm Calm - N/A   Clear
8:00 PM 46.4 °F - 44.6 °F 93% 30.12 in - Variable 1.2 mph - N/A   Clear
9:00 PM 50.0 °F - 48.2 °F 94% 30.12 in - ENE 4.6 mph - N/A   Clear
10:00 PM 46.4 °F 44.3 °F 44.6 °F 93% 30.12 in 5.0 mi NE 4.6 mph - N/A   Unknown
10:05 PM 44.6 °F - 42.8 °F 93% 30.12 in 1.7 mi Variable 2.3 mph - N/A   Mist
10:50 PM 42.8 °F - 42.8 °F 100% 30.12 in 0.7 mi Variable 1.2 mph - N/A   Mist
11:00 PM 42.8 °F - 42.8 °F 100% 30.12 in 0.7 mi Variable 1.2 mph - N/A   Mist
11:35 PM 41.0 °F - 41.0 °F 100% 30.12 in 0.4 mi NW 2.3 mph - N/A Fog Fog